FW8685 Weather Reports


Display with metric or nautical units.
time (UTC)temp
F
wind
direction
speed
MPH
gust
MPH
rain 1hr
in
rain 24hr
in
rain mn
in
humidity
%
barometer
mb
20260503055022 47 165 4.0 5.0 0.00 0.02 0.00 69 1015.6
20260503054541 47 156 2.0 4.0 0.00 0.02 0.00 69 1015.6
20260503054022 47 140 3.0 4.0 0.00 0.02 0.00 68 1015.7
20260503053523 47 140 2.0 3.0 0.00 0.02 0.00 67 1015.8
20260503053037 48 140 2.0 3.0 0.00 0.02 0.00 66 1015.8
20260503052524 48 140 2.0 3.0 0.00 0.02 0.00 67 1015.8
20260503052022 48 140 2.0 4.0 0.00 0.02 0.00 67 1015.8
20260503051550 48 136 1.0 4.0 0.00 0.02 0.00 67 1015.8
20260503051025 48 134 3.0 4.0 0.00 0.02 0.00 67 1015.8
20260503050526 48 128 3.0 5.0 0.00 0.02 0.00 67 1015.8
20260503050041 48 144 2.0 5.0 0.00 0.02 0.00 67 1015.9
20260503045527 48 150 2.0 5.0 0.00 0.04 0.02 67 1015.9
20260503045025 48 147 2.0 4.0 0.00 0.04 0.02 66 1015.9
20260503044538 48 159 2.0 4.0 0.00 0.04 0.02 65 1015.8
20260503044024 48 154 2.0 3.0 0.00 0.04 0.02 65 1015.9
20260503043524 48 148 2.0 4.0 0.00 0.04 0.02 65 1015.9
20260503043037 48 147 2.0 5.0 0.00 0.04 0.02 64 1015.9
20260503042525 49 163 3.0 5.0 0.00 0.04 0.02 64 1015.8
20260503042027 49 157 2.0 5.0 0.00 0.04 0.02 63 1015.8
20260503041537 49 146 3.0 5.0 0.00 0.04 0.02 63 1015.8
20260503041024 49 167 4.0 5.0 0.00 0.04 0.02 61 1015.8
20260503040529 50 165 2.0 5.0 0.00 0.04 0.02 60 1015.8
20260503040037 50 147 2.0 5.0 0.00 0.04 0.02 60 1015.7
20260503035524 50 159 2.0 5.0 0.00 0.04 0.02 60 1015.8
20260503035025 50 151 2.0 5.0 0.00 0.04 0.02 59 1015.8
20260503034540 51 144 2.0 4.0 0.00 0.04 0.02 59 1015.9
20260503034024 51 144 2.0 3.0 0.00 0.04 0.02 57 1015.9
20260503033525 51 144 2.0 3.0 0.00 0.04 0.02 56 1015.9
20260503033044 52 144 2.0 3.0 0.00 0.04 0.02 54 1015.9
20260503032525 52 144 2.0 3.0 0.00 0.04 0.02 55 1015.8
20260503032025 52 144 2.0 3.0 0.00 0.04 0.02 55 1015.9
20260503031538 53 144 2.0 3.0 0.00 0.04 0.02 54 1015.8
20260503031024 53 144 2.0 3.0 0.00 0.04 0.02 54 1015.8
20260503030526 53 144 2.0 3.0 0.00 0.04 0.02 53 1015.9
20260503030038 53 144 2.0 4.0 0.00 0.04 0.02 53 1015.7
20260503025524 54 144 2.0 4.0 0.00 0.04 0.02 53 1015.7
20260503025024 54 144 2.0 4.0 0.00 0.04 0.02 53 1015.7
20260503024539 54 144 2.0 4.0 0.00 0.04 0.02 52 1015.6
20260503024024 55 144 2.0 4.0 0.00 0.04 0.02 52 1015.6
20260503023525 55 144 3.0 4.0 0.00 0.04 0.02 50 1015.7
20260503023037 55 144 3.0 4.0 0.00 0.04 0.02 48 1015.7
20260503022520 56 144 3.0 4.0 0.00 0.04 0.02 48 1015.8
20260503022023 56 144 3.0 4.0 0.00 0.04 0.02 47 1015.7
20260503021538 57 144 2.0 3.0 0.00 0.04 0.02 47 1015.6
20260503021020 57 144 2.0 4.0 0.00 0.04 0.02 46 1015.6
20260503020523 57 144 2.0 4.0 0.00 0.04 0.02 46 1015.6
20260503020047 58 144 2.0 5.0 0.00 0.04 0.02 46 1015.6
20260503015520 58 144 3.0 5.0 0.00 0.04 0.02 46 1015.6
20260503015020 59 144 3.0 5.0 0.00 0.04 0.02 46 1015.6
20260503014606 59 144 3.0 4.0 0.00 0.04 0.02 45 1015.5
20260503014022 60 144 3.0 4.0 0.00 0.04 0.02 44 1015.6
20260503013521 60 144 3.0 4.0 0.00 0.04 0.02 44 1015.6
20260503013040 60 144 3.0 4.0 0.00 0.04 0.02 43 1015.6
20260503012521 62 144 3.0 4.0 0.00 0.04 0.02 43 1015.6
20260503012021 63 144 3.0 4.0 0.00 0.04 0.02 41 1015.5
20260503011546 64 209 2.0 3.0 0.00 0.04 0.02 39 1015.6
20260503011021 64 209 1.0 3.0 0.00 0.04 0.02 41 1015.6
20260503010520 64 209 1.0 3.0 0.00 0.04 0.02 40 1015.6
20260503010048 64 209 1.0 3.0 0.00 0.04 0.02 39 1015.5
20260503005520 65 209 1.0 3.0 0.00 0.04 0.02 36 1015.6
20260503005022 65 0 0.0 2.0 0.00 0.04 0.02 34 1015.7
20260503004606 66 0 0.0 2.0 0.00 0.04 0.02 34 1015.6
20260503004022 67 0 0.0 2.0 0.00 0.04 0.02 32 1015.7
20260503003526 67 211 0.0 3.0 0.00 0.04 0.02 32 1015.8
20260503003032 68 0 0.0 3.0 0.00 0.04 0.02 31 1015.6
20260503002523 68 224 1.0 4.0 0.00 0.04 0.02 28 1015.7
20260503002023 68 0 1.0 4.0 0.00 0.04 0.02 29 1015.8
20260503001539 69 252 2.0 5.0 0.00 0.04 0.02 26 1015.8
20260503001024 69 0 2.0 7.0 0.00 0.04 0.02 28 1015.8
20260503000526 69 256 3.0 8.0 0.00 0.04 0.02 28 1015.9
20260503000041 69 259 4.0 8.0 0.00 0.04 0.02 26 1016.0
20260502235523 69 240 3.0 8.0 0.00 0.04 0.02 28 1016.0
20260502235022 69 0 2.0 9.0 0.00 0.04 0.02 25 1016.0
20260502234543 69 265 4.0 9.0 0.00 0.04 0.02 26 1016.0
20260502234021 69 281 4.0 8.0 0.00 0.04 0.02 26 1016.0
20260502233524 69 259 4.0 8.0 0.00 0.04 0.02 27 1016.1
20260502233041 69 241 2.0 9.0 0.00 0.04 0.02 27 1016.0
20260502232522 69 313 1.0 9.0 0.00 0.04 0.02 26 1016.0
20260502232019 69 260 5.0 9.0 0.00 0.04 0.02 26 1016.1
20260502231538 69 333 3.0 11.0 0.00 0.04 0.02 28 1016.1
20260502231022 69 315 3.0 12.0 0.00 0.04 0.02 26 1016.1
20260502230524 69 302 7.0 12.0 0.00 0.04 0.02 28 1016.1
20260502230040 69 251 3.0 8.0 0.00 0.04 0.02 26 1016.1
20260502225522 69 283 2.0 8.0 0.00 0.04 0.02 27 1016.2
20260502225020 69 261 4.0 8.0 0.00 0.04 0.02 28 1016.1
20260502224538 69 360 2.0 7.0 0.00 0.04 0.02 27 1016.2
20260502224022 69 253 3.0 10.0 0.00 0.04 0.02 27 1016.1
20260502223523 69 0 2.0 10.0 0.00 0.04 0.02 30 1016.3
20260502223041 69 298 6.0 10.0 0.00 0.04 0.02 28 1016.3
20260502222523 69 336 4.0 8.0 0.00 0.04 0.02 28 1016.3
20260502222023 69 211 3.0 7.0 0.00 0.04 0.02 30 1016.3
20260502221537 69 292 3.0 9.0 0.00 0.04 0.02 30 1016.4
20260502221022 69 53 2.0 9.0 0.00 0.04 0.02 31 1016.4
20260502220522 68 5 2.0 7.0 0.00 0.04 0.02 31 1016.5
20260502220039 69 132 3.0 7.0 0.00 0.04 0.02 31 1016.4
20260502215522 69 128 1.0 8.0 0.00 0.04 0.02 32 1016.6
20260502215021 69 0 1.0 9.0 0.00 0.04 0.02 32 1016.7
20260502214540 69 294 4.0 9.0 0.00 0.04 0.02 30 1016.7
20260502214023 69 232 3.0 8.0 0.00 0.04 0.02 33 1016.7
20260502213522 69 225 3.0 9.0 0.00 0.04 0.02 30 1016.8
20260502213039 69 90 0.0 9.0 0.00 0.04 0.02 31 1016.9
20260502212524 69 28 4.0 9.0 0.00 0.04 0.02 34 1017.0
20260502212023 69 333 2.0 11.0 0.00 0.04 0.02 34 1017.1
20260502211543 69 281 4.0 13.0 0.00 0.04 0.02 29 1017.1
20260502211023 68 337 6.0 13.0 0.00 0.04 0.02 29 1017.2
20260502210522 68 275 6.0 13.0 0.00 0.04 0.02 29 1017.3
20260502210040 68 0 4.0 12.0 0.00 0.04 0.02 31 1017.4
20260502205523 68 343 2.0 13.0 0.00 0.04 0.02 31 1017.6
20260502205025 68 13 6.0 13.0 0.00 0.04 0.02 34 1017.6
20260502204540 68 360 5.0 11.0 0.00 0.04 0.02 31 1017.6
20260502204022 68 5 2.0 11.0 0.00 0.04 0.02 30 1017.6
20260502203522 68 22 6.0 14.0 0.00 0.04 0.02 35 1017.7
20260502203039 68 287 7.0 14.0 0.00 0.04 0.02 31 1017.7
20260502202522 67 52 5.0 14.0 0.00 0.04 0.02 34 1017.7
20260502202022 67 47 3.0 14.0 0.00 0.04 0.02 32 1017.8
20260502201538 68 306 6.0 12.0 0.00 0.04 0.02 33 1017.8
20260502201023 68 275 4.0 11.0 0.00 0.04 0.02 33 1017.8
20260502200523 67 306 1.0 13.0 0.00 0.04 0.02 33 1017.8
20260502200036 68 314 4.0 14.0 0.00 0.04 0.02 31 1017.8
20260502195523 68 333 7.0 14.0 0.00 0.04 0.02 35 1017.8
20260502195022 67 360 5.0 14.0 0.00 0.04 0.02 38 1017.9
20260502194541 67 78 2.0 8.0 0.00 0.04 0.02 37 1017.9
20260502194022 66 311 2.0 11.0 0.00 0.04 0.02 34 1018.0
20260502193537 67 342 4.0 14.0 0.00 0.04 0.02 34 1018.1
20260502193038 67 28 6.0 14.0 0.00 0.04 0.02 32 1018.3
20260502192526 66 22 6.0 12.0 0.00 0.04 0.02 40 1018.2
20260502192022 66 81 4.0 12.0 0.00 0.04 0.02 32 1018.3
20260502191537 67 55 7.0 14.0 0.00 0.04 0.02 34 1018.5
20260502191022 66 36 7.0 14.0 0.00 0.04 0.02 37 1018.5
20260502190522 66 339 5.0 11.0 0.00 0.04 0.02 36 1018.5
20260502190041 65 315 2.0 15.0 0.00 0.04 0.02 32 1018.5
20260502185522 66 43 5.0 15.0 0.00 0.04 0.02 38 1018.6
20260502185023 65 0 6.0 17.0 0.00 0.04 0.02 35 1018.7
20260502184549 65 269 6.0 17.0 0.00 0.04 0.02 33 1018.8
20260502184022 66 287 6.0 13.0 0.00 0.04 0.02 35 1018.8
20260502183523 65 302 4.0 12.0 0.00 0.04 0.02 35 1018.9
20260502183051 65 11 3.0 13.0 0.00 0.04 0.02 34 1019.1
20260502182524 65 311 7.0 13.0 0.00 0.04 0.02 36 1019.0
20260502182023 65 9 7.0 13.0 0.00 0.04 0.02 36 1019.1
20260502181543 64 134 5.0 10.0 0.00 0.04 0.02 38 1019.1
20260502181022 65 123 6.0 11.0 0.00 0.04 0.02 42 1018.9
20260502180523 63 159 3.0 12.0 0.00 0.04 0.02 37 1019.1
20260502164022 62 9 8.0 15.0 0.00 0.04 0.02 40 1019.8
20260502163522 62 57 6.0 12.0 0.00 0.04 0.02 46 1020.0
20260502163044 61 29 5.0 12.0 0.00 0.04 0.02 40 1019.9
20260502162525 61 48 7.0 13.0 0.00 0.04 0.02 44 1019.8
20260502162029 61 34 7.0 14.0 0.00 0.04 0.02 41 1019.9
20260502161541 61 26 9.0 14.0 0.00 0.04 0.02 41 1020.0
20260502161024 60 348 6.0 12.0 0.00 0.04 0.02 41 1019.9
20260502160525 60 51 7.0 12.0 0.00 0.04 0.02 41 1020.1
20260502152024 58 62 5.0 11.0 0.00 0.04 0.02 50 1020.2
20260502151543 58 41 5.0 11.0 0.00 0.04 0.02 48 1020.2
20260502151024 57 70 6.0 14.0 0.00 0.04 0.02 48 1020.3
20260502150524 56 79 8.0 15.0 0.00 0.04 0.02 49 1020.2
20260502130524 46 42 5.0 10.0 0.00 0.04 0.02 78 1019.4
20260502123522 43 53 4.0 8.0 0.00 0.04 0.02 86 1019.1
20260502123041 42 49 4.0 8.0 0.00 0.04 0.02 86 1019.1
20260502122523 42 45 3.0 5.0 0.00 0.04 0.02 86 1019.0
20260502122023 42 42 3.0 5.0 0.00 0.04 0.02 86 1018.9
20260502121538 42 57 3.0 6.0 0.00 0.04 0.02 86 1018.8
20260502121023 41 42 3.0 8.0 0.00 0.04 0.02 85 1018.7
20260502120523 41 42 5.0 8.0 0.00 0.04 0.02 85 1018.7
20260502115522 41 36 4.0 6.0 0.00 0.04 0.02 83 1018.5
20260502115024 41 32 3.0 4.0 0.00 0.04 0.02 83 1018.6
20260502114544 42 39 2.0 5.0 0.00 0.04 0.02 83 1018.5
20260502114022 42 30 2.0 6.0 0.00 0.04 0.02 83 1018.5
20260502113524 42 40 3.0 6.0 0.00 0.04 0.02 83 1018.4
20260502113040 42 51 3.0 6.0 0.00 0.04 0.02 84 1018.2
20260502112521 42 37 3.0 7.0 0.00 0.04 0.02 84 1018.2
20260502112027 42 42 4.0 7.0 0.00 0.04 0.02 84 1018.1
20260502111536 42 52 4.0 10.0 0.00 0.04 0.02 85 1018.1
20260502111023 42 35 5.0 10.0 0.00 0.04 0.02 85 1018.0
20260502110521 42 39 5.0 9.0 0.00 0.04 0.02 86 1018.1
20260502110039 43 41 4.0 7.0 0.00 0.04 0.02 87 1018.1
20260502105525 43 53 4.0 6.0 0.00 0.04 0.02 87 1018.0
20260502105024 43 41 4.0 7.0 0.00 0.04 0.02 87 1017.9
20260502104547 43 49 4.0 8.0 0.00 0.04 0.02 88 1018.0
20260502104025 43 43 5.0 8.0 0.00 0.04 0.02 88 1017.9
20260502103524 43 38 5.0 7.0 0.00 0.04 0.02 88 1017.9
20260502103039 43 40 5.0 6.0 0.00 0.04 0.02 89 1017.8
20260502102525 43 40 4.0 7.0 0.00 0.04 0.02 89 1017.9
20260502102024 43 46 4.0 7.0 0.00 0.04 0.02 89 1017.8
20260502101604 43 51 3.0 6.0 0.00 0.04 0.02 90 1017.9
20260502101025 43 52 3.0 6.0 0.00 0.04 0.02 90 1017.9
20260502100525 43 57 3.0 7.0 0.00 0.04 0.02 90 1017.8
20260502091024 46 52 3.0 9.0 0.00 0.04 0.02 90 1017.5
20260502090521 46 53 4.0 9.0 0.00 0.04 0.02 90 1017.5
20260502071536 50 315 2.0 4.0 0.00 0.04 0.02 87 1017.9
20260502071024 50 217 1.0 3.0 0.00 0.04 0.02 87 1017.8
20260502070523 50 216 0.0 4.0 0.00 0.04 0.02 87 1017.7
20260502070052 50 0 0.0 4.0 0.00 0.04 0.02 87 1017.4
20260502065521 50 220 2.0 4.0 0.00 0.04 0.02 86 1017.4
20260502065022 50 204 2.0 6.0 0.00 0.04 0.02 86 1017.5
20260502064538 50 284 2.0 6.0 0.00 0.04 0.02 86 1017.6
20260502064022 50 287 0.0 4.0 0.01 0.04 0.02 85 1017.3
20260502063523 51 56 1.0 4.0 0.01 0.04 0.02 84 1017.3
20260502063039 51 82 2.0 3.0 0.01 0.04 0.02 84 1017.3
20260502062523 51 0 1.0 6.0 0.01 0.04 0.02 83 1017.3